ZHONGXING-2D

Last updated on Thu Oct 30 2025 00:02:51 GMT+0000 (Coordinated Universal Time)

1 43920U 19001A 25302.49681782 -.00000327 00000+0 00000+0 0 9997 2 43920 0.0166 278.8352 0002888 324.0852 104.0512 1.00270986 51763
UTC large
Height (km)
Speed (km/s)
/
Latitude / Longitude
Inclination (degrees)
Orbital Period (minutes)
Azimuth
Elevation
Range (km)
Doppler Factor

Next 0 passes for location: London (51.5072 / 0.1276)

Sorry there are no passes over London.